Hourly Weather Bartki

Today, 19 April, Monday

Time Temperature Precipitation Wind Pressure Humidity
00:00 +7°C° 0.1 mm 3 mps 749 mmHg 95%
01:00 +7°C° 0 mm 2 mps 749 mmHg 94%
02:00 +7°C° 0 mm 2 mps 749 mmHg 93%
03:00 +6°C° 0 mm 2 mps 749 mmHg 92%
04:00 +6°C° 0 mm 2 mps 749 mmHg 91%
05:00 +7°C° 0 mm 3 mps 749 mmHg 89%
06:00 +9°C° 0 mm 3 mps 749 mmHg 86%
07:00 +10°C° 0 mm 3 mps 749 mmHg 83%
08:00 +11°C° 0.2 mm 3 mps 749 mmHg 76%
09:00 +13°C° 0.2 mm 3 mps 749 mmHg 70%
10:00 +15°C° 0.2 mm 4 mps 749 mmHg 63%
11:00 +15°C° 0.2 mm 4 mps 749 mmHg 59%
12:00 +15°C° 0.2 mm 4 mps 749 mmHg 54%
13:00 +17°C° 0.2 mm 4 mps 749 mmHg 50%
14:00 +16°C° 0.2 mm 3 mps 748 mmHg 54%
15:00 +14°C° 0.2 mm 3 mps 748 mmHg 58%
16:00 +13°C° 0.2 mm 3 mps 748 mmHg 62%
17:00 +13°C° 0 mm 2 mps 748 mmHg 65%
18:00 +12°C° 0 mm 2 mps 748 mmHg 68%
19:00 +10°C° 0 mm 2 mps 748 mmHg 71%
20:00 +9°C° 0 mm 2 mps 748 mmHg 74%
21:00 +8°C° 0 mm 2 mps 748 mmHg 77%
22:00 +8°C° 0 mm 2 mps 749 mmHg 81%
23:00 +7°C° 0 mm 2 mps 748 mmHg 81%

Tomorrow, 20 April, Tuesday

Time Temperature Precipitation Wind Pressure Humidity
00:00 +7°C° 0 mm 2 mps 748 mmHg 82%
01:00 +7°C° 0 mm 2 mps 748 mmHg 82%
02:00 +6°C° 0 mm 2 mps 748 mmHg 85%
03:00 +5°C° 0 mm 2 mps 748 mmHg 87%
04:00 +5°C° 0 mm 2 mps 748 mmHg 89%
05:00 +6°C° 0 mm 2 mps 748 mmHg 85%
06:00 +7°C° 0 mm 2 mps 748 mmHg 80%
07:00 +8°C° 0 mm 2 mps 748 mmHg 76%
08:00 +10°C° 0 mm 2 mps 748 mmHg 69%
09:00 +12°C° 0 mm 2 mps 747 mmHg 63%
10:00 +13°C° 0 mm 2 mps 747 mmHg 57%
11:00 +14°C° 0.3 mm 2 mps 747 mmHg 54%
12:00 +15°C° 0.3 mm 2 mps 746 mmHg 52%
13:00 +15°C° 0.3 mm 1 mps 746 mmHg 49%
14:00 +15°C° 0.3 mm 2 mps 745 mmHg 52%
15:00 +14°C° 0.3 mm 2 mps 745 mmHg 54%
16:00 +13°C° 0.3 mm 3 mps 745 mmHg 57%
17:00 +12°C° 0.1 mm 3 mps 745 mmHg 63%
18:00 +10°C° 0.1 mm 2 mps 745 mmHg 69%
19:00 +9°C° 0.1 mm 2 mps 745 mmHg 76%
20:00 +8°C° 0 mm 2 mps 745 mmHg 79%
21:00 +7°C° 0 mm 2 mps 745 mmHg 83%
22:00 +7°C° 0 mm 2 mps 744 mmHg 86%
23:00 +7°C° 0 mm 1 mps 744 mmHg 86%

Day after tomorrow, 21 April, Wednesday

Time Temperature Precipitation Wind Pressure Humidity
00:00 +7°C° 0 mm 1 mps 744 mmHg 87%
01:00 +7°C° 0 mm 1 mps 744 mmHg 87%
02:00 +7°C° 0 mm 1 mps 744 mmHg 87%
03:00 +6°C° 0 mm 1 mps 743 mmHg 87%
04:00 +6°C° 0 mm 1 mps 743 mmHg 88%
05:00 +7°C° 0 mm 1 mps 743 mmHg 82%
06:00 +8°C° 0 mm 1 mps 743 mmHg 77%
07:00 +10°C° 0 mm 1 mps 743 mmHg 72%
08:00 +10°C° 0.1 mm 2 mps 743 mmHg 67%
09:00 +12°C° 0.1 mm 2 mps 743 mmHg 62%
10:00 +13°C° 0.1 mm 2 mps 743 mmHg 56%
11:00 +14°C° 0.3 mm 2 mps 742 mmHg 56%
12:00 +14°C° 0.3 mm 2 mps 742 mmHg 56%
13:00 +14°C° 0.3 mm 2 mps 742 mmHg 55%
14:00 +13°C° 0.4 mm 3 mps 741 mmHg 57%
15:00 +13°C° 0.4 mm 3 mps 741 mmHg 58%
16:00 +13°C° 0.4 mm 3 mps 741 mmHg 59%
17:00 +12°C° 0.3 mm 3 mps 741 mmHg 65%
18:00 +10°C° 0.3 mm 2 mps 741 mmHg 72%
19:00 +9°C° 0.3 mm 2 mps 741 mmHg 78%
20:00 +8°C° 0.1 mm 2 mps 741 mmHg 81%
21:00 +7°C° 0.1 mm 3 mps 741 mmHg 84%
22:00 +5°C° 0.1 mm 3 mps 741 mmHg 88%
23:00 +5°C° 0.1 mm 3 mps 741 mmHg 88%

22 April, Thursday

Time Temperature Precipitation Wind Pressure Humidity
00:00 +5°C° 0.1 mm 4 mps 742 mmHg 88%
01:00 +5°C° 0.1 mm 4 mps 742 mmHg 89%
02:00 +4°C° 0 mm 4 mps 742 mmHg 89%
03:00 +1°C° 0 mm 4 mps 742 mmHg 89%
04:00 0°C° 0 mm 4 mps 742 mmHg 89%
05:00 +1°C° 0 mm 4 mps 742 mmHg 84%
06:00 +1°C° 0 mm 5 mps 743 mmHg 78%
07:00 +2°C° 0 mm 6 mps 743 mmHg 73%
08:00 +2°C° 0 mm 6 mps 743 mmHg 66%
09:00 +3°C° 0 mm 6 mps 743 mmHg 59%
10:00 +4°C° 0 mm 7 mps 743 mmHg 53%
11:00 +5°C° 0 mm 7 mps 743 mmHg 49%
12:00 +6°C° 0 mm 7 mps 743 mmHg 46%
13:00 +6°C° 0 mm 7 mps 743 mmHg 43%
14:00 +6°C° 0 mm 7 mps 743 mmHg 45%
15:00 +6°C° 0 mm 7 mps 743 mmHg 46%
16:00 +6°C° 0 mm 7 mps 743 mmHg 48%
17:00 +5°C° 0 mm 6 mps 743 mmHg 54%
18:00 +5°C° 0 mm 5 mps 743 mmHg 60%
19:00 +3°C° 0 mm 4 mps 743 mmHg 65%
20:00 +3°C° 0 mm 4 mps 743 mmHg 71%
21:00 +1°C° 0 mm 4 mps 743 mmHg 76%
22:00 +1°C° 0 mm 4 mps 742 mmHg 82%
23:00 +1°C° 0.3 mm 4 mps 742 mmHg 85%

23 April, Friday

Time Temperature Precipitation Wind Pressure Humidity
00:00 +1°C° 0.3 mm 4 mps 742 mmHg 89%
01:00 +1°C° 0.3 mm 4 mps 742 mmHg 93%
02:00 0°C° 0.3 mm 4 mps 742 mmHg 94%
03:00 0°C° 0.3 mm 4 mps 742 mmHg 95%
04:00 0°C° 0.3 mm 5 mps 742 mmHg 96%
05:00 +1°C° 0.1 mm 6 mps 742 mmHg 93%
06:00 +1°C° 0.1 mm 6 mps 743 mmHg 91%
07:00 0°C° 0.1 mm 7 mps 743 mmHg 88%
08:00 +2°C° 0.2 mm 7 mps 744 mmHg 85%
09:00 +2°C° 0.2 mm 7 mps 744 mmHg 81%
10:00 +3°C° 0.2 mm 7 mps 745 mmHg 78%
11:00 +3°C° 0.2 mm 7 mps 745 mmHg 76%
12:00 +3°C° 0.2 mm 7 mps 746 mmHg 74%
13:00 +4°C° 0.2 mm 7 mps 746 mmHg 72%
14:00 +4°C° 0.2 mm 6 mps 746 mmHg 69%
15:00 +4°C° 0.2 mm 6 mps 746 mmHg 65%
16:00 +4°C° 0.2 mm 6 mps 747 mmHg 62%
17:00 +3°C° 0 mm 5 mps 747 mmHg 64%
18:00 +1°C° 0 mm 4 mps 747 mmHg 67%
19:00 +1°C° 0 mm 3 mps 748 mmHg 69%
20:00 0°C° 0 mm 3 mps 747 mmHg 70%
21:00 +1°C° 0 mm 2 mps 747 mmHg 70%
22:00 -1°C° 0 mm 2 mps 747 mmHg 70%
23:00 -1°C° 0 mm 2 mps 747 mmHg 72%

24 April, Saturday

Time Temperature Precipitation Wind Pressure Humidity
00:00 -1°C° 0 mm 2 mps 747 mmHg 73%
01:00 -1°C° 0 mm 2 mps 746 mmHg 74%
02:00 -1°C° 0 mm 2 mps 746 mmHg 77%
03:00 -1°C° 0 mm 2 mps 746 mmHg 81%
04:00 -1°C° 0 mm 2 mps 746 mmHg 84%
05:00 0°C° 0 mm 3 mps 746 mmHg 78%
06:00 +1°C° 0 mm 3 mps 746 mmHg 73%
07:00 +1°C° 0 mm 4 mps 746 mmHg 67%
08:00 +3°C° 0.1 mm 4 mps 746 mmHg 59%
09:00 +5°C° 0.1 mm 5 mps 746 mmHg 51%
10:00 +5°C° 0.1 mm 6 mps 746 mmHg 42%
11:00 +5°C° 0.1 mm 6 mps 746 mmHg 46%
12:00 +4°C° 0.1 mm 6 mps 747 mmHg 49%
13:00 +4°C° 0.1 mm 7 mps 747 mmHg 53%
14:00 +4°C° 0.4 mm 6 mps 747 mmHg 56%
15:00 +4°C° 0.4 mm 6 mps 747 mmHg 59%
16:00 +3°C° 0.4 mm 5 mps 747 mmHg 61%
17:00 +2°C° 0.2 mm 5 mps 747 mmHg 67%
18:00 +1°C° 0.2 mm 4 mps 748 mmHg 73%
19:00 +1°C° 0.2 mm 3 mps 748 mmHg 79%
20:00 0°C° 0 mm 3 mps 748 mmHg 82%
21:00 0°C° 0 mm 3 mps 748 mmHg 84%
22:00 -2°C° 0 mm 4 mps 748 mmHg 87%
23:00 -2°C° 0 mm 4 mps 748 mmHg 88%
Show more